Tracking 26217 objects as of 27-Sep-2022
HD Live streaming from Space Station
objects crossing your sky now

STARLINK-3362

Track STARLINK-3362 now!
10-day predictions
STARLINK-3362 is classified as:


NORAD ID: 51108
Int'l Code: 2022-005E
Perigee: 545.5 km
Apogee: 548.4 km
Inclination: 53.2 °
Period: 95.4 minutes
Semi major axis: 6917 km
RCS: Unknown
Launch date: January 19, 2022
Source: United States (US)
Launch site: AIR FORCE EASTERN TEST RANGE (AFETR)
aabbcc
Your satellite tracking list
Your tracking list is empty




NASA's NSSDC Master Catalog

Two Line Element Set (TLE):
1 51108U 22005E   22270.02263453 -.00003477  00000-0 -20051-3 0  9996
2 51108  53.2153 183.9956 0002075  46.1668 313.9495 15.08827185 38710
Source of the keplerian elements: AFSPC